Weather History for Spartanburg, SC

Change the Weather History Date:

Friday, January 31, 2014

  Actual Average (KGSP) Record (KGSP)
Temperature  
Mean Temperature 40 °F 43 °F  
Max Temperature 60 °F 54 °F 79 °F (1975)
Min Temperature 19 °F 33 °F 3 °F (1966)
Degree Days  
Heating Degree Days 26 22  
Month to date heating degree days 705  
Since 1 July heating degree days 1910  
Cooling Degree Days 0 0  
Month to date cooling degree days 0  
Year to date cooling degree days 0  
Moisture  
Dew Point 17 °F    
Average Humidity 50    
Maximum Humidity 93    
Minimum Humidity 15    
Precipitation  
Precipitation 0.00 in 0.13 in 2.42 in (1985)
Month to date precipitation 3.82  
Year to date precipitation 3.82  
Snow  
Snow 0.00 in 0.10 in 1.00 in (1905)
Month to date snowfall 2.3  
Since 1 July snowfall 2.8  
Snow Depth -    
Sea Level Pressure  
Sea Level Pressure 30.16 in    
Wind  
Wind Speed 1 mph (SSW)    
Max Wind Speed 8 mph    
Max Gust Speed -    
Visibility 10 miles    
Events      
T = Trace of Precipitation, MM = Missing Value Source: NWS Daily Summary

Daily Weather History Graph

Daily Weather History Graph

Search for Another Location

Airport:

Trip Planner

Search our weather history database for the weather conditions in past years. The results will help you decide how hot, cold, wet, or windy it might be!

Date:

Astronomy

Jan. 31, 2014 Rise Set
Actual Time 7:27 AM EST 5:55 PM EST
Civil Twilight 7:00 AM EST 6:22 PM EST
Nautical Twilight 6:30 AM EST 6:52 PM EST
Astronomical Twilight 6:00 AM EST 7:22 PM EST
Moon 7:40 AM EST (1/31) 7:13 PM EST (1/31)
Length of Visible Light 11h 21m
Length of Day
10h 28m
New Moon, 1% of the Moon is Illuminated
Jan 31
New Moon
Feb 6
First Quarter
Feb 14
Full
Feb 22
Last Quarter
Mar 1
New

Hourly Weather History & Observations

Time (EST) Temp. Windchill Dew Point Humidity Pressure Visibility Wind Dir Wind Speed Gust Speed Precip Events Conditions
12:15 AM 26.6 °F - 17.6 °F 69% 30.21 in 10.0 mi Calm Calm - N/A   Clear
12:35 AM 24.8 °F - 17.6 °F 74% 30.21 in 10.0 mi Calm Calm - N/A   Clear
12:55 AM 24.8 °F - 17.6 °F 74% 30.20 in 10.0 mi Calm Calm - N/A   Clear
1:15 AM 24.8 °F - 17.6 °F 74% 30.20 in 10.0 mi Calm Calm - N/A   Clear
1:35 AM 23.0 °F - 17.6 °F 80% 30.20 in 10.0 mi Calm Calm - N/A   Clear
1:55 AM 24.8 °F - 17.6 °F 74% 30.19 in 10.0 mi Calm Calm - N/A   Clear
2:15 AM 23.0 °F - 17.6 °F 80% 30.19 in 10.0 mi Calm Calm - N/A   Clear
2:35 AM 23.0 °F - 17.6 °F 80% 30.19 in 10.0 mi Calm Calm - N/A   Clear
2:55 AM 21.2 °F - 17.6 °F 86% 30.19 in 10.0 mi Calm Calm - N/A   Clear
3:15 AM 21.2 °F - 17.6 °F 86% 30.19 in 10.0 mi Calm Calm - N/A   Clear
3:35 AM 21.2 °F - 17.6 °F 86% 30.19 in 10.0 mi Calm Calm - N/A   Clear
3:55 AM 21.2 °F - 17.6 °F 86% 30.18 in 10.0 mi Calm Calm - N/A   Clear
4:15 AM 21.2 °F - 17.6 °F 86% 30.17 in 10.0 mi Calm Calm - N/A   Clear
4:35 AM 21.2 °F - 17.6 °F 86% 30.19 in 10.0 mi Calm Calm - N/A   Clear
4:55 AM 21.2 °F - 17.6 °F 86% 30.18 in 10.0 mi Calm Calm - N/A   Clear
5:15 AM 21.2 °F - 17.6 °F 86% 30.17 in 10.0 mi Calm Calm - N/A   Clear
5:35 AM 21.2 °F - 17.6 °F 86% 30.18 in 10.0 mi Calm Calm - N/A   Clear
5:55 AM 19.4 °F - 17.6 °F 93% 30.17 in 10.0 mi Calm Calm - N/A   Clear
6:15 AM 21.2 °F - 17.6 °F 86% 30.17 in 10.0 mi Calm Calm - N/A   Clear
6:35 AM 21.2 °F 16.4 °F 17.6 °F 86% 30.17 in 10.0 mi North 3.5 mph - N/A   Clear
6:55 AM 21.2 °F - 17.6 °F 86% 30.17 in 10.0 mi Calm Calm - N/A   Clear
7:15 AM 21.2 °F - 17.6 °F 86% 30.19 in 10.0 mi Calm Calm - N/A   Clear
7:35 AM 21.2 °F - 17.6 °F 86% 30.19 in 10.0 mi Calm Calm - N/A   Clear
7:55 AM 23.0 °F - 19.4 °F 86% 30.19 in 10.0 mi Calm Calm - N/A   Clear
8:15 AM 24.8 °F - 19.4 °F 80% 30.19 in 10.0 mi Calm Calm - N/A   Clear
8:35 AM 28.4 °F - 21.2 °F 74% 30.19 in 10.0 mi Calm Calm - N/A   Clear
8:55 AM 30.2 °F - 21.2 °F 69% 30.19 in 10.0 mi Calm Calm - N/A   Clear
9:15 AM 32.0 °F 28.7 °F 21.2 °F 64% 30.20 in 10.0 mi SE 3.5 mph - N/A   Clear
9:35 AM 33.8 °F 30.8 °F 21.2 °F 60% 30.20 in 10.0 mi South 3.5 mph - N/A   Clear
9:55 AM 35.6 °F 32.8 °F 21.2 °F 56% 30.21 in 10.0 mi SSW 3.5 mph - N/A   Clear
10:15 AM 37.4 °F 32.8 °F 21.2 °F 52% 30.21 in 10.0 mi SSW 5.8 mph - N/A   Clear
10:35 AM 41.0 °F 36.4 °F 19.4 °F 42% 30.20 in 10.0 mi SW 6.9 mph - N/A   Clear
10:55 AM 42.8 °F 40.1 °F 19.4 °F 39% 30.21 in 10.0 mi SW 4.6 mph - N/A   Clear
11:15 AM 44.6 °F 42.2 °F 19.4 °F 37% 30.20 in 10.0 mi SW 4.6 mph - N/A   Clear
11:35 AM 46.4 °F 42.9 °F 17.6 °F 32% 30.19 in 10.0 mi SSW 6.9 mph - N/A   Clear
11:55 AM 48.2 °F - 17.6 °F 30% 30.18 in 10.0 mi SSW 5.8 mph - N/A   Clear
12:15 PM 50.0 °F - 17.6 °F 28% 30.17 in 10.0 mi SW 4.6 mph - N/A   Clear
12:35 PM 51.8 °F - 17.6 °F 26% 30.16 in 10.0 mi WSW 6.9 mph - N/A   Clear
12:55 PM 53.6 °F - 15.8 °F 22% 30.15 in 10.0 mi SW 5.8 mph - N/A   Clear
1:15 PM 53.6 °F - 14.0 °F 21% 30.14 in 10.0 mi West 6.9 mph - N/A   Clear
1:35 PM 55.4 °F - 14.0 °F 20% 30.13 in 10.0 mi South 4.6 mph - N/A   Clear
1:55 PM 57.2 °F - 14.0 °F 18% 30.11 in 10.0 mi SSW 6.9 mph - N/A   Clear
2:15 PM 57.2 °F - 14.0 °F 18% 30.11 in 10.0 mi WSW 5.8 mph - N/A   Clear
2:35 PM 59.0 °F - 14.0 °F 17% 30.10 in 10.0 mi SSW 8.1 mph - N/A   Clear
2:55 PM 60.8 °F - 14.0 °F 16% 30.10 in 10.0 mi SW 6.9 mph - N/A   Clear
3:15 PM 60.8 °F - 14.0 °F 16% 30.10 in 10.0 mi SSW 4.6 mph - N/A   Clear
3:35 PM 60.8 °F - 14.0 °F 16% 30.10 in 10.0 mi SSW 5.8 mph - N/A   Clear
3:55 PM 60.8 °F - 14.0 °F 16% 30.10 in 10.0 mi SSW 8.1 mph - N/A   Clear
4:15 PM 60.8 °F - 14.0 °F 16% 30.10 in 10.0 mi SW 8.1 mph - N/A   Clear
4:35 PM 60.8 °F - 14.0 °F 16% 30.10 in 10.0 mi SSW 8.1 mph - N/A   Clear
4:55 PM 60.8 °F - 12.2 °F 15% 30.10 in 10.0 mi SSW 6.9 mph - N/A   Clear
5:15 PM 59.0 °F - 12.2 °F 16% 30.11 in 10.0 mi Calm Calm - N/A   Clear
5:35 PM 57.2 °F - 12.2 °F 17% 30.11 in 10.0 mi SSW 3.5 mph - N/A   Clear
5:55 PM 55.4 °F - 12.2 °F 18% 30.12 in 10.0 mi Calm Calm - N/A   Clear
6:15 PM 53.6 °F - 12.2 °F 19% 30.13 in 10.0 mi SSW 3.5 mph - N/A   Clear
6:35 PM 53.6 °F - 14.0 °F 21% 30.13 in 10.0 mi Calm Calm - N/A   Clear
6:55 PM 51.8 °F - 12.2 °F 21% 30.14 in 10.0 mi Calm Calm - N/A   Clear
7:15 PM 50.0 °F - 14.0 °F 24% 30.15 in 10.0 mi Calm Calm - N/A   Clear
7:35 PM 46.4 °F - 15.8 °F 29% 30.15 in 10.0 mi Calm Calm - N/A   Clear
7:55 PM 44.6 °F - 15.8 °F 31% 30.15 in 10.0 mi Calm Calm - N/A   Clear
8:15 PM 42.8 °F - 15.8 °F 34% 30.15 in 10.0 mi Calm Calm - N/A   Clear
8:35 PM 42.8 °F - 14.0 °F 31% 30.16 in 10.0 mi Calm Calm - N/A   Clear
8:55 PM 42.8 °F - 14.0 °F 31% 30.16 in 10.0 mi Calm Calm - N/A   Clear
9:15 PM 41.0 °F - 17.6 °F 39% 30.16 in 10.0 mi Calm Calm - N/A   Clear
9:35 PM 41.0 °F - 15.8 °F 36% 30.16 in 10.0 mi Calm Calm - N/A   Clear
9:55 PM 42.8 °F - 15.8 °F 34% 30.17 in 10.0 mi Calm Calm - N/A   Clear
10:15 PM 37.4 °F - 17.6 °F 45% 30.17 in 10.0 mi Calm Calm - N/A   Clear
10:35 PM 37.4 °F - 17.6 °F 45% 30.17 in 10.0 mi Calm Calm - N/A   Clear
10:55 PM 37.4 °F - 17.6 °F 45% 30.16 in 10.0 mi Calm Calm - N/A   Clear
11:15 PM 37.4 °F - 17.6 °F 45% 30.16 in 10.0 mi Calm Calm - N/A   Clear
11:35 PM 33.8 °F - 21.2 °F 60% 30.15 in 10.0 mi Calm Calm - N/A   Clear
11:55 PM 33.8 °F - 19.4 °F 56% 30.16 in 10.0 mi Calm Calm - N/A   Clear